Date String (YYYY-MM-DD hh:mm:ss) UTC,Instrument flags,absolute air pressure of the measurement (hPa),sample flow rate (lpm),inlet stack bypass flow (lpm),air temperature of the measurement (°C),ambient temperature measured by the external sensor (°C),aerosol sample conditioner tube jacket temperature (°C),OPC LED temperature (°C),internal box temperature (°C),relative humidity of the measurement (%),span deviation,mass concentration of particles derived from Lorenz-Mie calculation of OPC scattering (μg/m³),mass concentration of particles derived from Lorenz-Mie calculation of OPC scattering (μg/m³),mass concentration of particles derived from Lorenz-Mie calculation of OPC scattering (μg/m³)
DateTimeUTC,F1_M11,P_M11,Q1_M11,Q2_M11,T1_M11,T2_M11,T3_M11,T4_M11,T5_M11,U1_M11,ZSPAN_M11,X0_M11,X2_M11,X1_M11
2023-10-31 20:00:00,SystemResetWarning,0835.6,5.00,000.00,024.7,024.0,000.0,033.0,026.3,10.8,0002.4,0012.48,0007.29,0006.82
2023-10-31 20:01:00,SystemResetWarning,0835.6,4.99,000.00,024.7,024.0,000.0,033.0,026.2,10.9,0002.3,0012.73,0007.32,0006.85
2023-10-31 20:02:00,SystemResetWarning,0835.6,4.99,000.00,024.8,024.0,000.0,033.0,026.2,11.0,0002.4,0012.72,0007.35,0006.86
2023-10-31 20:03:00,SystemResetWarning,0835.6,5.01,000.00,024.8,024.0,000.0,033.0,026.2,11.1,0001.9,0012.53,0007.35,0006.87
2023-10-31 20:04:00,SystemResetWarning,0835.7,5.00,000.00,024.8,024.0,000.0,033.0,026.2,11.0,0002.7,0012.41,0007.37,0006.89
2023-10-31 20:05:00,SystemResetWarning,0835.6,5.00,000.00,024.8,024.0,000.0,033.0,026.3,11.2,0003.2,0012.54,0007.43,0006.90
2023-10-31 20:06:00,SystemResetWarning,0835.6,5.01,000.00,024.8,024.0,000.0,033.1,026.3,10.7,0002.3,0012.66,0007.46,0006.91
2023-10-31 20:07:00,SystemResetWarning,0835.6,5.00,000.00,024.8,024.0,000.0,033.1,026.3,10.3,0001.5,0012.78,0007.49,0006.94
2023-10-31 20:08:00,SystemResetWarning,0835.6,4.98,000.00,024.8,024.0,000.0,033.1,026.3,10.1,0002.0,0012.57,0007.53,0006.97
2023-10-31 20:09:00,SystemResetWarning,0835.6,5.00,000.00,024.9,024.0,000.0,033.1,026.3,10.3,0002.1,0011.95,0007.53,0006.97
2023-10-31 20:10:00,SystemResetWarning,0835.6,5.01,000.00,024.9,024.0,000.0,033.1,026.3,10.5,0002.7,0011.65,0007.49,0006.96
2023-10-31 20:11:00,SystemResetWarning,0835.6,5.00,000.00,024.9,024.1,000.0,033.1,026.3,10.6,0002.7,0011.55,0007.46,0006.95
2023-10-31 20:12:00,SystemResetWarning,0835.6,5.00,000.00,024.9,024.1,000.0,033.1,026.3,10.1,0002.2,0011.24,0007.44,0006.94
2023-10-31 20:13:00,SystemResetWarning,0835.6,5.00,000.00,024.9,024.1,000.0,033.1,026.3,9.8,0002.4,0011.65,0007.43,0006.93
2023-10-31 20:14:00,SystemResetWarning,0835.6,5.00,000.00,024.9,024.1,000.0,033.1,026.4,10.0,0002.4,0011.68,0007.42,0006.93
2023-10-31 20:15:00,SystemResetWarning,0835.5,5.00,000.00,024.9,024.1,000.0,033.2,026.4,10.1,0002.3,0011.83,0007.42,0006.93
2023-10-31 20:16:00,SystemResetWarning,0835.5,5.00,000.00,024.9,024.1,000.0,033.2,026.4,10.2,0002.5,0011.80,0007.39,0006.93
2023-10-31 20:17:00,SystemResetWarning,0835.5,5.00,000.00,024.9,024.1,000.0,033.2,026.4,10.2,0002.7,0012.29,0007.38,0006.93
2023-10-31 20:18:00,SystemResetWarning,0835.5,4.99,000.00,025.0,024.1,000.0,033.2,026.4,10.3,0003.0,0012.12,0007.36,0006.92
2023-10-31 20:19:00,SystemResetWarning,0835.5,5.00,000.00,025.0,024.1,000.0,033.2,026.5,10.1,0002.2,0011.66,0007.30,0006.89
2023-10-31 20:20:00,SystemResetWarning,0835.5,5.00,000.00,025.0,024.1,000.0,033.2,026.5,10.1,0001.9,0011.56,0007.25,0006.87
2023-10-31 20:21:00,SystemResetWarning,0835.5,5.01,000.00,025.0,024.2,000.0,033.2,026.4,10.0,0001.7,0011.61,0007.24,0006.85
2023-10-31 20:22:00,SystemResetWarning,0835.5,5.00,000.00,025.0,024.2,000.0,033.2,026.5,10.1,0001.4,0012.10,0007.21,0006.82
2023-10-31 20:23:00,SystemResetWarning,0835.5,5.00,000.00,025.0,024.2,000.0,033.2,026.5,10.2,0001.2,0012.25,0007.18,0006.79
2023-10-31 20:24:00,SystemResetWarning,0835.5,5.00,000.00,025.0,024.2,000.0,033.3,026.5,10.3,0001.1,0011.77,0007.14,0006.76
2023-10-31 20:25:00,SystemResetWarning,0835.5,5.00,000.00,025.0,024.2,000.0,033.3,026.5,10.4,0001.6,0011.60,0007.12,0006.74
2023-10-31 20:26:00,SystemResetWarning,0835.5,5.01,000.00,025.1,024.2,000.0,033.3,026.5,10.5,0001.7,0011.40,0007.10,0006.72
2023-10-31 20:27:00,SystemResetWarning,0835.5,4.99,000.00,025.1,024.2,000.0,033.3,026.6,10.3,0000.6,0011.27,0007.07,0006.71
2023-10-31 20:28:00,SystemResetWarning,0835.5,5.00,000.00,025.1,024.2,000.0,033.3,026.5,10.2,0001.3,0010.73,0007.08,0006.73
2023-10-31 20:29:00,SystemResetWarning,0835.5,5.00,000.00,025.1,024.2,000.0,033.3,026.5,10.2,0002.0,0010.51,0007.11,0006.75
2023-10-31 20:30:00,SystemResetWarning,0835.5,5.00,000.00,025.1,024.2,000.0,033.3,026.6,10.3,0002.5,0010.62,0007.15,0006.75
2023-10-31 20:31:00,SystemResetWarning,0835.5,5.00,000.00,025.1,024.3,000.0,033.3,026.6,9.5,0002.7,0010.88,0007.18,0006.76
2023-10-31 20:32:00,SystemResetWarning,0835.5,5.00,000.00,025.1,024.3,000.0,033.3,026.6,9.4,0002.8,0011.41,0007.23,0006.79
2023-10-31 20:33:00,SystemResetWarning,0835.4,5.00,000.00,025.1,024.3,000.0,033.4,026.6,9.7,0003.4,0011.31,0007.24,0006.80
2023-10-31 20:34:00,SystemResetWarning,0835.5,5.00,000.00,025.1,024.3,000.0,033.4,026.6,9.2,0003.9,0011.40,0007.28,0006.84
2023-10-31 20:35:00,SystemResetWarning,0835.4,5.01,000.00,025.1,024.3,000.0,033.4,026.6,9.2,0003.6,0011.41,0007.32,0006.88
2023-10-31 20:36:00,SystemResetWarning,0835.4,5.00,000.00,025.1,024.3,000.0,033.4,026.6,9.5,0003.3,0011.41,0007.33,0006.89
2023-10-31 20:37:00,SystemResetWarning,0835.4,5.00,000.00,025.1,024.3,000.0,033.4,026.6,9.4,0002.6,0011.41,0007.34,0006.90
2023-10-31 20:38:00,SystemResetWarning,0835.3,5.00,000.00,025.1,024.3,000.0,033.4,026.6,9.6,0002.7,0011.44,0007.36,0006.92
2023-10-31 20:39:00,SystemResetWarning,0835.3,5.00,000.00,025.1,024.3,000.0,033.4,026.6,9.4,0001.9,0011.55,0007.38,0006.91
2023-10-31 20:40:00,SystemResetWarning,0835.3,5.00,000.00,025.2,024.3,000.0,033.4,026.6,9.7,0001.4,0011.64,0007.35,0006.85
2023-10-31 20:41:00,SystemResetWarning,0835.3,5.00,000.00,025.2,024.3,000.0,033.4,026.6,9.8,0000.9,0011.67,0007.32,0006.83
2023-10-31 20:42:00,SystemResetWarning,0835.3,4.99,000.00,025.2,024.3,000.0,033.4,026.6,9.9,0001.1,0011.45,0007.26,0006.80
2023-10-31 20:43:00,SystemResetWarning,0835.3,5.00,000.00,025.2,024.3,000.0,033.4,026.6,9.8,0002.3,0010.95,0007.15,0006.73
2023-10-31 20:44:00,SystemResetWarning,0835.3,4.99,000.00,025.2,024.3,000.0,033.5,026.6,9.8,0002.7,0010.35,0007.06,0006.65
2023-10-31 20:45:00,SystemResetWarning,0835.2,5.01,000.00,025.2,024.3,000.0,033.5,026.6,9.5,0002.6,0010.03,0006.98,0006.58
2023-10-31 20:46:00,SystemResetWarning,0835.3,5.01,000.00,025.2,024.3,000.0,033.5,026.6,9.7,0002.0,0009.99,0006.93,0006.53
2023-10-31 20:47:00,SystemResetWarning,0835.2,5.01,000.00,025.2,024.3,000.0,033.5,026.7,9.8,0001.8,0010.01,0006.91,0006.50
2023-10-31 20:48:00,SystemResetWarning,0835.2,5.00,000.00,025.2,024.4,000.0,033.5,026.6,9.7,0001.6,0009.90,0006.83,0006.44
2023-10-31 20:49:00,SystemResetWarning,0835.2,4.99,000.00,025.2,024.4,000.0,033.5,026.7,9.6,0000.8,0009.84,0006.76,0006.37
2023-10-31 20:50:00,SystemResetWarning,0835.3,4.99,000.00,025.2,024.4,000.0,033.5,026.7,9.4,0000.6,0009.74,0006.69,0006.31
2023-10-31 20:51:00,SystemResetWarning,0835.3,5.00,000.00,025.2,024.4,000.0,033.5,026.6,9.4,0001.4,0009.57,0006.65,0006.30
2023-10-31 20:52:00,SystemResetWarning,0835.2,5.01,000.00,025.2,024.4,000.0,033.5,026.7,9.6,0000.6,0009.50,0006.63,0006.29
2023-10-31 20:53:00,SystemResetWarning,0835.3,5.00,000.00,025.2,024.3,000.0,033.5,026.6,9.5,0000.2,0009.52,0006.62,0006.28
2023-10-31 20:54:00,SystemResetWarning,0835.4,4.98,000.00,025.2,024.3,000.0,033.5,026.7,9.4,-000.5,0009.59,0006.65,0006.29
2023-10-31 20:55:00,SystemResetWarning,0835.3,5.02,000.00,025.2,024.3,000.0,033.5,026.6,9.4,-001.7,0009.68,0006.68,0006.32
2023-10-31 20:56:00,SystemResetWarning,0835.3,5.00,000.00,025.2,024.3,000.0,033.5,026.7,9.4,-001.9,0009.57,0006.71,0006.34
2023-10-31 20:57:00,SystemResetWarning,0835.3,4.99,000.00,025.2,024.3,000.0,033.5,026.7,9.7,-001.4,0009.49,0006.71,0006.35
2023-10-31 20:58:00,SystemResetWarning,0835.3,5.00,000.00,025.2,024.3,000.0,033.5,026.7,9.5,-001.0,0009.43,0006.68,0006.33
2023-10-31 20:59:00,SystemResetWarning,0835.3,5.02,000.00,025.2,024.3,000.0,033.5,026.6,9.4,-000.7,0009.41,0006.67,0006.32
